Wind_Speed
13 15 16 19 25 30 32 31 28 26 26 26 25 25 28 31 31 30 28 27 25 25 24 23 22 20 19 19 20 20 19 19 18 18 17 17 16 16 16 16 15 14 12 11 10 9 8 8 8 9 9 10 10 10 11 12 13 14 14 14 13 12 12
13 15 16 17 21 25 30 32 31 29 29 29 27 25 27 30 31 30 28 27 26 25 25 24 22 21 19 20 20 20 20 19 19 19 19 17 16 16 16 16 16 15 15 14 14 13 12 11 11 11 11 12 12 12 12 13 14 15 15 15 14 13 12
15 14 16 18 20 22 24 27 29 31 32 31 30 28 27 28 29 29 29 27 26 26 26 25 23 22 21 21 21 21 21 21 21 21 21 19 18 18 18 18 17 17 18 17 17 16 15 14 14 13 13 13 13 14 14 14 15 15 15 15 15 14 13
19 15 15 17 19 20 21 22 24 29 32 33 32 30 27 26 26 28 29 29 28 27 27 26 24 24 24 23 23 22 22 23 23 24 23 22 22 21 21 21 20 20 20 20 19 18 17 17 15 15 15 15 15 15 16 16 16 16 16 15 15 14 13
20 19 18 17 18 20 21 22 23 26 30 33 33 32 29 26 25 27 29 30 30 29 28 27 26 26 26 26 26 25 25 25 26 26 25 25 25 25 25 24 24 24 24 23 22 20 19 18 17 16 16 17 17 17 18 18 18 18 18 17 15 14 14
20 21 21 19 18 20 22 23 23 25 28 32 35 34 32 28 26 27 28 29 29 29 29 29 29 29 28 28 29 29 28 28 28 28 27 27 28 28 28 27 27 27 27 26 25 23 22 21 20 18 17 18 19 18 19 19 19 19 20 19 17 15 15
21 22 22 20 18 20 22 22 23 25 27 30 34 35 34 32 29 28 28 27 27 27 28 29 29 29 29 29 30 30 30 30 30 30 29 30 31 31 31 31 30 30 31 30 29 27 25 25 25 23 21 20 20 20 21 20 19 21 21 21 19 17 15
20 22 23 20 17 18 22 24 26 27 28 29 33 35 35 34 32 30 29 27 26 27 28 28 29 29 28 28 29 30 30 30 31 32 33 33 34 34 34 34 33 33 33 32 32 30 27 26 27 26 24 24 25 25 23 21 20 22 23 22 21 19 17
19 20 22 19 17 18 22 26 27 28 29 29 31 33 34 35 34 33 32 29 27 27 27 28 28 28 27 27 27 27 27 29 31 33 35 36 36 37 37 36 36 36 35 34 34 33 30 28 26 24 25 28 30 28 24 23 22 23 24 24 22 20 18
19 20 22 21 21 22 24 27 27 27 29 30 30 30 31 34 34 33 33 31 29 29 28 27 28 28 28 27 26 26 26 27 29 31 33 34 36 38 39 39 38 37 36 35 35 34 33 31 29 30 33 34 34 32 28 27 26 24 24 24 23 21 18
20 21 24 24 25 25 27 28 27 26 28 30 31 30 30 32 33 33 32 31 31 30 29 29 29 29 29 27 26 27 27 28 29 30 30 31 35 39 40 41 40 38 37 38 38 37 37 37 37 39 43 42 38 35 32 31 30 27 24 24 24 21 18
21 21 22 23 24 26 28 28 25 25 27 29 30 29 29 30 31 32 32 32 32 32 31 31 30 30 30 28 27 28 29 29 29 30 30 31 36 42 44 42 40 39 40 41 40 39 42 46 45 43 45 46 42 38 35 34 34 31 28 25 24 22 19
26 23 22 22 23 27 29 27 22 22 26 28 28 28 28 29 29 30 31 32 33 33 33 32 31 31 31 29 28 29 29 29 29 30 32 33 37 42 43 39 38 40 42 43 42 43 44 45 46 45 45 46 47 46 42 40 40 38 34 28 23 22 21
30 28 24 22 23 28 30 25 21 21 23 24 25 26 27 29 29 29 29 30 32 33 33 33 32 32 31 30 30 30 28 28 29 31 34 35 40 45 41 36 37 40 41 42 41 40 40 39 40 45 47 47 49 51 49 47 46 43 38 32 25 22 22
29 29 25 22 25 31 29 25 22 20 21 21 21 22 23 26 28 28 28 28 30 32 33 33 33 32 31 30 30 29 29 29 30 32 34 34 40 46 40 34 34 32 32 34 35 37 42 43 43 47 51 51 50 52 53 53 52 45 38 36 31 25 24
28 29 25 22 27 32 29 26 23 21 22 22 21 21 21 23 24 24 25 27 29 31 33 34 34 32 31 29 28 29 29 30 30 32 34 34 37 39 34 30 31 29 27 29 32 37 44 48 48 48 52 53 52 54 57 58 57 50 42 41 40 32 28
27 28 26 23 28 33 31 28 25 23 24 23 22 23 23 23 24 24 24 26 28 30 32 33 31 29 27 27 27 28 29 29 31 33 35 33 30 29 28 28 29 29 29 29 30 32 37 42 45 46 49 51 51 55 60 60 61 58 49 46 46 41 36
27 28 26 24 28 34 33 30 26 24 25 25 25 27 26 25 25 25 25 27 27 28 28 27 26 25 25 27 27 28 29 31 33 34 34 31 27 25 27 28 28 27 27 29 29 29 31 37 41 43 46 48 49 55 60 61 62 61 53 49 49 46 42
27 28 27 25 28 34 35 30 27 26 26 26 28 30 29 28 27 27 27 26 25 25 25 25 26 26 27 27 28 28 30 31 32 32 32 30 27 25 25 25 26 26 25 27 29 29 30 33 36 39 43 48 51 54 58 61 61 59 54 49 47 46 44
28 29 29 28 27 33 37 33 28 28 29 28 29 30 31 31 30 29 28 26 26 26 26 27 28 29 28 28 29 29 29 29 30 31 30 28 25 24 24 24 25 26 27 29 30 30 30 32 33 36 40 46 52 55 57 59 60 57 52 46 43 43 42
31 30 30 29 27 32 38 37 32 31 31 30 31 32 33 33 32 30 29 29 29 29 29 29 30 30 29 29 29 28 27 28 29 28 26 25 24 25 26 26 25 26 28 30 30 30 31 32 34 35 37 42 48 52 54 58 60 55 49 45 43 43 42
35 33 31 29 27 30 36 37 36 35 33 32 33 33 33 33 32 33 33 31 31 31 31 31 31 31 30 30 28 27 26 26 25 24 24 25 26 26 26 26 26 26 27 28 30 29 28 28 29 31 36 41 45 48 51 57 59 53 46 45 44 42 41
36 36 34 32 30 31 34 37 39 38 36 34 33 33 33 33 33 34 35 33 33 33 33 32 32 31 30 29 27 26 25 24 23 24 25 26 27 27 26 26 25 25 26 28 29 26 23 22 20 22 27 33 38 43 48 54 56 52 46 44 41 38 38
35 35 34 34 33 32 34 36 40 41 38 34 33 33 34 34 34 34 34 34 34 34 33 32 31 31 29 27 25 24 23 23 24 25 26 27 27 27 27 27 26 25 26 28 29 26 23 21 20 22 25 27 30 35 41 48 53 50 45 40 36 35 34
34 34 34 35 35 34 34 35 38 41 40 37 36 35 35 36 36 36 36 37 36 34 32 31 30 29 27 24 23 22 23 24 26 27 28 28 28 28 29 29 28 27 27 28 28 25 21 18 17 22 28 32 32 33 38 45 48 43 38 35 33 32 31
35 36 36 36 37 36 35 35 37 39 41 42 40 38 38 38 39 39 38 36 34 31 30 29 27 25 22 21 21 22 24 27 29 30 30 29 28 28 29 30 29 29 28 27 26 22 18 14 13 15 21 28 31 30 33 37 37 32 29 30 30 29 28
35 37 37 37 37 36 35 37 37 36 39 43 43 41 42 42 40 40 37 34 32 30 28 26 23 20 20 20 22 25 29 31 32 33 31 29 28 28 29 30 30 28 27 27 25 21 16 13 12 12 15 20 24 25 27 27 26 24 25 26 26 26 26
33 35 36 36 35 35 36 38 37 33 36 44 45 42 42 41 39 38 35 32 30 28 24 21 18 18 19 22 25 28 31 33 35 35 32 30 30 31 32 31 29 27 25 25 23 20 15 13 12 12 13 16 20 21 21 21 21 22 23 24 24 24 25
31 32 33 34 35 35 35 35 34 33 38 45 46 42 40 39 38 36 33 30 26 21 18 17 17 20 24 25 26 29 32 35 35 34 32 32 34 35 33 30 27 24 23 22 19 16 13 12 13 14 15 18 20 20 20 20 20 21 22 23 23 23 25
28 28 29 30 31 32 32 32 33 36 40 42 41 38 36 34 31 28 25 23 22 23 23 22 22 24 26 26 28 32 35 36 34 32 33 36 37 35 31 27 24 22 21 18 14 12 12 13 14 16 17 19 20 20 20 20 20 20 22 23 24 25 26
22 22 23 25 26 28 30 32 34 37 38 38 36 34 31 30 29 26 23 22 22 25 26 26 26 28 30 32 35 37 36 34 33 34 37 38 35 31 26 22 21 21 19 14 11 10 12 14 15 15 16 17 19 21 22 22 21 22 23 24 25 26 28
22 23 25 27 29 30 31 31 31 32 33 32 31 29 28 27 28 28 27 27 27 25 25 26 29 33 35 36 36 36 35 35 36 37 38 35 30 26 23 20 21 20 15 10 9 10 12 13 14 15 16 17 20 22 23 24 23 22 22 24 25 27 28
29 30 30 31 32 32 31 29 28 28 28 26 25 24 23 21 21 22 24 25 26 26 26 28 30 31 31 31 33 35 36 37 37 36 35 31 26 23 20 19 20 18 12 8 8 9 11 12 13 14 15 17 21 23 23 23 22 21 22 25 28 29 28
34 34 34 34 34 33 32 30 28 26 24 22 20 19 18 18 19 20 21 21 22 23 26 28 28 28 29 32 35 36 35 34 33 31 29 25 22 20 19 18 18 15 10 8 8 8 10 11 12 14 16 18 21 22 23 23 22 22 24 26 26 25 26
33 34 34 34 33 32 30 28 25 22 20 19 18 17 17 17 17 17 18 19 20 22 25 27 28 29 32 33 33 32 31 30 28 25 22 20 18 18 17 16 16 13 10 8 8 8 10 12 12 14 17 20 21 22 22 22 21 21 22 23 23 24 25
29 29 28 28 28 26 25 23 21 20 18 17 16 16 16 17 17 19 21 23 24 25 26 27 28 28 28 27 26 27 26 24 22 19 18 17 17 16 15 15 15 13 10 8 8 10 11 13 13 13 16 19 19 18 18 20 21 21 22 23 24 26 27
24 23 22 21 21 20 19 18 17 17 16 16 16 17 17 18 20 22 23 24 24 23 23 23 23 23 22 22 23 23 22 20 18 16 16 16 15 14 14 14 14 13 12 11 11 12 13 14 13 14 15 17 18 17 19 22 24 23 24 25 25 27 26
17 18 17 17 16 15 15 16 15 16 16 17 18 19 20 20 21 22 22 21 20 20 21 21 20 20 21 21 21 20 19 17 15 15 15 14 13 13 13 12 13 13 13 13 14 14 14 15 15 16 17 18 19 20 22 24 24 24 25 25 26 26 25
Wind_Direction
223 223 220 229 233 232 233 233 232 230 229 227 224 220 215 211 210 210 208 206 205 204 205 206 205 205 206 203 200 201 203 204 207 209 210 212 213 214 215 216 218 220 226 234 242 251 261 271 281 287 289 290 296 303 308 311 315 320 324 326 326 321 317
227 219 217 225 231 232 234 235 234 232 231 229 225 221 219 217 215 215 213 211 210 210 211 212 211 212 212 210 208 210 211 211 212 212 211 212 213 214 215 216 218 225 232 240 248 255 262 269 275 283 289 291 294 297 300 303 307 311 317 321 321 317 312
238 224 219 226 231 231 232 235 236 235 234 232 227 223 222 221 221 221 219 217 215 215 216 217 218 219 219 218 217 218 219 219 218 217 216 217 217 217 218 220 223 230 237 245 251 256 260 266 272 280 287 292 295 296 298 300 302 304 308 312 313 310 306
240 235 229 227 227 228 229 231 234 236 237 236 232 228 227 226 224 223 223 222 221 221 221 223 225 226 227 226 225 225 225 224 223 222 220 221 223 224 226 230 232 236 241 246 250 252 257 262 267 274 281 287 291 295 298 298 297 299 301 304 305 303 300
245 242 239 234 226 224 224 223 225 231 235 236 234 231 229 227 223 223 223 223 225 225 226 228 230 232 232 232 231 231 230 229 228 227 226 226 229 230 233 238 240 241 244 246 248 252 257 261 265 271 276 280 284 291 299 297 293 294 297 299 299 295 294
260 251 246 244 237 228 225 223 222 227 231 233 233 232 229 226 222 220 221 222 224 226 227 229 231 233 234 235 236 236 235 234 233 232 232 233 236 236 239 243 244 244 246 248 250 255 261 266 267 268 270 275 279 289 297 294 288 291 294 295 294 290 287
267 256 252 251 243 231 226 222 222 226 229 230 231 231 230 227 224 220 219 220 222 223 225 227 230 232 234 236 237 238 239 239 239 239 239 239 240 240 241 244 245 246 249 251 253 257 263 268 269 268 269 270 275 286 294 291 285 288 293 293 290 285 281
265 256 255 253 244 232 225 221 222 228 230 228 228 228 227 227 226 222 220 219 219 221 224 226 229 232 234 235 237 239 240 242 243 244 243 243 245 246 247 247 248 249 251 253 254 256 260 265 269 272 270 267 272 280 284 285 283 283 288 291 288 282 278
263 254 250 248 243 235 228 225 226 229 230 229 227 224 223 225 226 225 223 222 221 222 224 226 229 232 233 233 236 239 242 245 247 247 245 245 247 250 251 251 251 252 253 252 252 255 259 263 268 269 262 266 281 288 280 276 279 280 283 286 285 279 276
259 251 248 249 248 239 230 225 222 222 226 228 227 222 219 221 224 225 225 225 225 226 227 228 230 232 233 234 237 241 244 248 252 254 253 251 252 253 254 253 251 250 251 253 254 255 256 260 265 266 262 269 286 290 281 276 274 273 278 281 280 276 272
257 253 253 254 251 241 228 218 212 214 221 225 227 224 219 219 220 222 224 223 225 228 229 230 233 235 237 237 240 244 247 250 255 259 259 261 261 256 252 250 248 249 254 260 263 260 257 263 271 272 269 273 280 279 276 277 274 270 272 276 276 273 268
256 256 257 253 247 235 220 208 204 208 215 221 226 227 224 222 219 219 221 221 223 227 229 230 232 236 239 240 242 246 249 251 256 261 264 267 263 253 247 247 251 255 260 266 270 267 264 270 276 276 272 273 276 274 273 275 275 271 266 268 272 269 264
256 255 257 257 245 225 210 201 197 200 209 216 222 225 226 225 221 220 221 221 223 226 229 230 231 235 239 241 243 246 249 253 259 265 267 268 266 260 256 258 264 267 267 270 274 274 274 278 280 279 276 273 271 271 271 271 273 271 265 260 264 265 261
254 249 253 259 243 218 204 198 191 190 199 207 213 219 223 224 222 223 225 225 225 225 228 230 231 234 239 242 245 247 250 254 260 264 266 270 273 270 266 268 273 276 276 277 277 278 282 287 283 276 274 272 269 267 268 268 267 268 266 258 253 256 256
250 244 248 255 235 213 203 199 193 189 192 197 201 208 216 221 221 221 223 225 224 223 226 230 233 236 240 242 245 249 252 255 259 264 267 270 274 273 273 278 284 285 283 280 278 274 274 277 278 273 268 269 269 267 267 268 265 264 265 257 247 244 246
247 239 246 251 228 211 204 202 199 196 194 194 197 200 205 211 214 215 219 222 223 224 227 231 234 236 239 241 245 249 253 257 261 266 268 268 271 275 281 289 293 292 287 280 275 270 267 269 275 275 270 268 270 269 268 269 267 266 265 259 248 237 233
243 237 245 247 226 212 208 205 203 202 199 198 199 200 202 204 207 211 215 218 222 225 228 232 234 236 238 242 245 247 251 259 265 269 271 272 275 280 286 291 293 291 289 283 276 269 266 267 271 274 271 269 269 268 268 268 269 268 266 263 257 244 229
242 238 245 245 229 218 212 209 209 211 207 203 202 202 203 203 204 206 209 213 219 222 225 230 232 233 235 238 241 247 255 265 270 273 277 281 284 286 289 292 293 291 288 285 279 270 264 264 266 268 270 269 267 267 267 267 268 268 266 267 268 256 236
240 237 240 243 234 224 217 214 216 217 213 207 205 205 204 203 202 203 205 209 213 217 220 223 227 230 233 237 245 255 263 269 274 278 283 287 290 291 292 294 295 294 291 287 282 275 267 265 265 266 266 265 265 266 267 267 267 266 266 268 272 265 249
240 237 238 242 238 226 221 219 219 219 215 209 207 207 206 205 203 202 203 205 207 212 216 219 225 231 237 245 255 262 268 273 278 282 285 289 293 295 296 297 296 296 295 292 287 281 275 272 271 269 265 263 263 263 266 268 266 264 265 265 270 271 258
239 238 237 239 237 227 223 225 224 219 214 209 208 208 208 208 205 203 204 207 210 216 220 223 229 236 245 255 261 263 269 275 278 281 284 289 295 298 298 299 300 299 297 293 289 287 284 279 274 270 264 261 261 261 264 266 264 262 261 262 270 272 259
237 238 235 233 231 225 223 227 227 221 215 211 209 209 210 210 209 207 209 213 218 222 225 229 236 244 253 258 259 261 268 272 275 281 287 294 300 303 304 305 305 303 299 293 291 290 286 280 277 273 266 261 260 261 263 264 263 261 260 266 271 267 254
236 238 237 233 229 224 222 226 227 223 217 212 210 210 211 211 211 212 215 220 224 227 231 237 244 250 253 253 255 261 267 272 277 285 292 299 304 307 310 312 310 307 302 296 296 292 279 270 274 275 269 264 263 262 262 265 265 263 265 270 269 259 249
235 238 239 237 233 227 224 227 229 225 217 212 211 211 211 213 214 217 220 224 228 233 238 243 247 248 247 249 255 262 268 274 282 290 295 302 308 311 315 316 313 309 304 299 299 295 280 267 266 267 265 264 267 268 266 265 264 265 268 269 262 251 244
234 238 240 240 238 232 228 229 231 227 218 213 213 213 213 215 217 220 224 229 233 237 240 241 242 242 243 249 256 264 273 282 289 295 300 305 310 314 317 317 314 310 305 301 298 291 278 266 264 267 265 264 268 274 271 266 265 267 268 263 253 245 239
235 237 239 239 238 237 232 230 233 230 221 216 216 215 215 216 218 223 227 230 232 233 233 233 234 238 244 252 262 273 285 292 296 299 302 306 310 314 316 315 313 310 305 300 294 282 267 260 262 264 264 263 265 267 266 264 264 264 261 253 245 240 238
233 234 234 234 237 239 236 232 235 234 223 217 217 219 220 221 224 227 229 228 226 225 226 229 234 242 250 261 274 285 292 296 300 301 302 305 309 314 316 314 311 308 302 296 289 275 259 256 262 260 256 254 252 250 251 254 255 253 250 245 239 237 241
230 229 230 232 236 238 235 232 235 235 223 216 217 221 222 223 224 224 222 219 218 219 225 233 243 254 266 278 285 290 294 297 298 298 300 304 309 313 315 312 308 304 298 290 282 271 259 257 266 269 260 249 244 243 241 240 242 243 241 237 234 240 253
228 230 231 234 235 234 232 232 232 226 216 213 215 217 218 217 216 214 212 212 215 223 238 252 264 275 283 289 292 294 296 295 294 294 298 303 308 311 312 308 303 297 291 284 275 265 261 264 269 271 264 252 247 243 234 228 231 235 235 234 238 250 261
224 227 229 230 228 225 223 221 217 211 207 206 207 206 205 204 204 205 209 215 224 235 247 259 274 286 292 295 297 297 294 291 290 293 298 302 306 307 307 302 296 289 283 277 267 255 253 258 264 267 262 252 245 237 226 222 228 233 234 238 245 256 264
207 210 212 212 209 205 204 203 201 199 197 196 196 197 199 204 212 220 229 237 243 249 254 261 275 288 292 293 294 291 288 287 290 295 300 303 304 304 302 296 287 282 277 269 256 245 245 252 258 258 250 240 233 227 223 225 231 234 237 244 254 266 273
188 190 191 193 191 188 189 191 193 193 194 197 203 208 213 220 227 234 239 242 247 257 266 272 281 287 287 286 285 285 286 288 291 295 299 302 302 301 298 289 281 277 271 256 243 238 240 244 245 241 236 228 223 222 227 233 237 238 243 253 265 275 278
179 181 183 184 183 183 185 189 192 195 199 204 210 215 219 227 235 242 248 252 259 267 275 279 283 284 281 279 282 285 287 288 290 293 296 297 298 296 290 281 277 273 260 237 231 230 232 237 237 234 232 226 224 229 237 242 243 247 257 267 272 274 273
173 174 176 179 179 180 183 187 190 194 198 203 209 217 230 244 253 258 264 270 276 279 279 278 278 276 277 281 284 285 286 286 288 289 291 292 292 287 279 274 273 266 245 224 224 223 228 237 238 233 230 228 232 239 242 241 245 257 267 272 273 271 270
169 171 174 177 178 180 183 186 189 195 204 215 225 237 249 258 261 263 266 269 275 280 280 278 277 277 280 284 284 284 284 284 284 285 287 288 282 273 269 269 266 254 231 220 227 228 231 239 239 234 234 236 238 241 242 247 257 268 273 273 273 274 276
169 172 175 178 182 186 190 194 201 210 221 233 242 250 257 260 261 264 268 270 272 275 276 277 277 278 279 280 279 280 280 279 280 282 281 275 268 263 263 262 256 243 226 223 236 240 240 242 240 238 243 246 245 247 258 274 284 285 281 278 277 278 280
174 178 183 188 192 196 202 209 218 228 237 247 254 258 263 267 270 272 274 274 273 274 276 278 278 276 275 275 275 275 275 275 276 274 267 262 260 259 257 254 248 237 223 220 235 245 248 250 248 245 251 260 264 270 280 287 289 287 283 281 280 280 281
186 190 197 203 207 214 220 226 237 250 257 261 264 267 269 272 275 277 279 279 280 281 281 279 275 271 270 270 269 269 270 269 264 258 255 256 257 255 251 248 244 236 227 224 231 238 243 248 250 251 257 265 270 275 280 283 285 285 284 282 282 282 285
Height
3149 3149 3150 3152 3153 3156 3157 3158 3160 3161 3162 3163 3164 3166 3168 3169 3170 3171 3173 3175 3177 3179 3180 3181 3183 3184 3185 3186 3187 3188 3189 3190 3191 3192 3193 3194 3195 3196 3197 3198 3199 3199 3199 3199 3199 3199 3199 3199 3199 3198 3198 3197 3197 3196 3196 3195 3194 3194 3193 3191 3191 3190 3189
3146 3147 3148 3149 3150 3152 3153 3155 3157 3159 3160 3160 3162 3164 3165 3166 3168 3169 3171 3173 3175 3177 3178 3180 3181 3182 3183 3184 3185 3186 3187 3188 3189 3190 3192 3193 3194 3195 3195 3196 3197 3197 3197 3197 3197 3197 3197 3197 3197 3196 3196 3196 3196 3195 3195 3194 3193 3192 3191 3190 3189 3189 3188
3143 3144 3145 3146 3147 3148 3150 3152 3154 3156 3157 3158 3159 3161 3162 3164 3166 3168 3170 3172 3173 3175 3176 3178 3179 3180 3181 3182 3183 3184 3185 3186 3187 3189 3190 3191 3192 3193 3194 3194 3195 3195 3195 3195 3195 3195 3195 3195 3195 3195 3195 3194 3194 3194 3193 3193 3192 3191 3190 3189 3188 3187 3187
3141 3142 3143 3143 3145 3146 3147 3149 3151 3152 3153 3155 3157 3158 3160 3162 3164 3166 3168 3170 3171 3173 3174 3176 3177 3179 3179 3180 3181 3182 3183 3184 3185 3187 3188 3189 3190 3191 3192 3192 3192 3193 3193 3193 3193 3193 3193 3193 3193 3193 3193 3193 3192 3192 3192 3191 3191 3189 3188 3187 3186 3186 3185
3139 3140 3140 3141 3142 3143 3144 3145 3147 3149 3150 3152 3154 3156 3158 3160 3163 3164 3166 3167 3169 3170 3172 3174 3175 3176 3177 3178 3179 3179 3180 3182 3183 3185 3186 3187 3188 3189 3189 3189 3190 3190 3190 3190 3191 3191 3191 3191 3191 3191 3191 3190 3190 3189 3189 3189 3188 3187 3186 3186 3185 3184 3183
3136 3137 3138 3139 3140 3140 3141 3143 3144 3146 3147 3149 3151 3153 3156 3158 3160 3162 3163 3165 3166 3168 3170 3171 3172 3173 3174 3175 3176 3177 3178 3180 3181 3183 3184 3185 3185 3186 3186 3186 3187 3187 3187 3188 3188 3188 3189 3189 3189 3189 3188 3188 3188 3187 3187 3186 3186 3185 3184 3184 3183 3182 3181
3133 3134 3135 3137 3137 3138 3139 3140 3142 3143 3145 3147 3148 3150 3153 3155 3157 3159 3161 3162 3164 3166 3167 3168 3169 3170 3171 3172 3173 3174 3176 3178 3179 3181 3182 3182 3182 3183 3183 3183 3184 3184 3184 3185 3185 3185 3186 3186 3186 3185 3185 3185 3185 3184 3184 3183 3183 3182 3182 3181 3181 3180 3179
3130 3131 3132 3134 3135 3136 3136 3138 3139 3140 3142 3144 3145 3147 3150 3152 3154 3156 3158 3160 3162 3163 3164 3166 3167 3168 3169 3170 3171 3172 3174 3176 3177 3178 3179 3179 3179 3180 3180 3180 3181 3181 3181 3182 3183 3183 3183 3183 3183 3182 3182 3182 3181 3181 3181 3180 3180 3180 3179 3179 3178 3178 3177
3128 3129 3129 3131 3132 3133 3134 3135 3136 3138 3139 3140 3142 3143 3146 3148 3150 3153 3155 3157 3159 3160 3162 3163 3164 3165 3166 3168 3169 3171 3173 3174 3174 3174 3175 3176 3176 3176 3177 3178 3179 3179 3180 3181 3181 3181 3181 3181 3180 3180 3179 3178 3177 3178 3179 3178 3177 3177 3176 3176 3176 3175 3174
3125 3126 3127 3128 3129 3130 3130 3132 3134 3135 3136 3137 3138 3140 3143 3145 3147 3150 3152 3154 3156 3158 3159 3161 3162 3163 3164 3166 3167 3169 3170 3170 3170 3171 3172 3173 3173 3173 3175 3176 3176 3177 3179 3179 3179 3180 3179 3178 3178 3177 3175 3174 3175 3175 3175 3175 3174 3174 3173 3173 3173 3173 3172
3123 3123 3124 3125 3126 3127 3127 3129 3131 3132 3133 3135 3136 3137 3140 3142 3144 3147 3149 3151 3153 3155 3157 3158 3159 3160 3161 3163 3165 3166 3167 3167 3167 3168 3170 3171 3170 3171 3173 3174 3175 3177 3178 3177 3177 3178 3176 3174 3174 3173 3170 3170 3172 3172 3171 3171 3170 3170 3170 3170 3170 3170 3169
3120 3121 3122 3122 3123 3124 3125 3126 3128 3130 3131 3132 3134 3135 3137 3139 3141 3144 3146 3148 3150 3152 3154 3155 3156 3157 3158 3161 3162 3163 3163 3165 3165 3166 3167 3168 3168 3168 3169 3171 3173 3175 3175 3173 3172 3172 3171 3168 3167 3167 3166 3165 3165 3165 3166 3166 3166 3166 3166 3166 3167 3167 3166
3118 3119 3120 3120 3120 3121 3122 3124 3126 3127 3129 3130 3131 3133 3134 3136 3139 3141 3143 3145 3147 3149 3150 3152 3153 3154 3155 3158 3159 3159 3161 3162 3164 3164 3164 3165 3164 3161 3163 3167 3170 3171 3170 3168 3167 3165 3164 3163 3162 3161 3161 3160 3159 3158 3160 3161 3161 3162 3162 3162 3163 3163 3163
3115 3117 3117 3118 3118 3118 3120 3122 3123 3125 3126 3127 3129 3130 3132 3134 3136 3138 3140 3142 3144 3146 3147 3149 3150 3151 3153 3154 3155 3156 3159 3160 3161 3161 3161 3161 3159 3155 3160 3166 3167 3166 3164 3162 3160 3158 3157 3157 3156 3155 3155 3155 3154 3153 3153 3154 3155 3156 3158 3157 3158 3159 3159
3112 3113 3114 3115 3115 3116 3118 3120 3121 3122 3124 3125 3127 3128 3130 3131 3133 3135 3136 3139 3141 3143 3144 3146 3147 3149 3150 3151 3152 3154 3156 3156 3156 3156 3157 3159 3155 3153 3158 3163 3161 3159 3157 3154 3153 3153 3151 3150 3150 3150 3150 3150 3149 3148 3146 3146 3146 3149 3152 3152 3151 3152 3153
3108 3110 3111 3112 3113 3114 3116 3118 3119 3120 3121 3123 3124 3126 3127 3129 3130 3132 3134 3136 3138 3140 3142 3143 3144 3146 3147 3149 3150 3151 3152 3152 3152 3152 3152 3154 3152 3151 3154 3155 3153 3152 3151 3149 3148 3148 3147 3145 3145 3145 3145 3144 3144 3142 3140 3140 3140 3143 3147 3146 3144 3145 3146
3105 3107 3108 3110 3111 3112 3114 3115 3116 3118 3119 3120 3122 3123 3125 3126 3128 3130 3132 3134 3136 3137 3139 3140 3141 3143 3144 3146 3147 3148 3148 3148 3148 3146 3147 3148 3149 3149 3150 3149 3149 3148 3146 3144 3143 3142 3142 3141 3140 3140 3139 3138 3138 3136 3135 3135 3135 3136 3140 3141 3139 3140 3140
3103 3104 3106 3107 3108 3109 3111 3112 3114 3115 3117 3118 3119 3121 3122 3124 3126 3128 3130 3131 3133 3135 3136 3137 3139 3140 3142 3143 3144 3144 3145 3144 3143 3142 3142 3144 3145 3144 3144 3144 3144 3143 3142 3140 3138 3137 3137 3135 3134 3135 3134 3133 3132 3130 3129 3130 3130 3131 3134 3136 3136 3136 3136
3099 3101 3102 3104 3105 3107 3108 3110 3112 3113 3114 3116 3117 3118 3120 3121 3123 3125 3127 3129 3131 3132 3134 3135 3136 3137 3138 3140 3141 3141 3141 3140 3139 3138 3138 3139 3139 3139 3139 3139 3138 3137 3136 3135 3134 3132 3132 3130 3129 3130 3129 3127 3126 3125 3125 3125 3126 3127 3130 3132 3133 3133 3134
3095 3097 3099 3100 3102 3104 3106 3107 3109 3110 3112 3113 3114 3116 3118 3119 3121 3123 3124 3126 3127 3129 3130 3131 3132 3134 3135 3136 3137 3137 3137 3136 3136 3135 3134 3134 3135 3134 3133 3133 3133 3132 3131 3130 3129 3127 3127 3126 3125 3125 3123 3121 3120 3120 3121 3120 3121 3124 3126 3127 3129 3130 3131
3091 3093 3095 3096 3098 3101 3102 3104 3106 3107 3109 3111 3112 3113 3115 3116 3118 3120 3121 3122 3124 3125 3126 3128 3129 3130 3131 3132 3132 3133 3132 3132 3132 3131 3131 3130 3130 3130 3129 3129 3128 3127 3126 3124 3123 3123 3122 3121 3120 3119 3117 3116 3115 3116 3116 3116 3116 3119 3122 3123 3125 3126 3127
3087 3089 3091 3093 3095 3097 3098 3100 3102 3104 3106 3107 3108 3110 3112 3114 3116 3117 3118 3119 3121 3122 3124 3125 3126 3127 3127 3128 3128 3128 3128 3128 3128 3128 3127 3126 3126 3126 3125 3125 3124 3123 3121 3120 3119 3118 3116 3115 3115 3113 3111 3111 3110 3111 3112 3112 3112 3115 3118 3119 3121 3122 3123
3083 3084 3086 3089 3091 3093 3094 3096 3098 3101 3103 3104 3106 3107 3109 3111 3113 3114 3115 3117 3118 3119 3120 3121 3122 3123 3124 3124 3124 3124 3124 3124 3124 3124 3123 3122 3122 3121 3121 3120 3118 3117 3115 3114 3113 3112 3111 3109 3109 3108 3107 3107 3106 3107 3108 3108 3109 3112 3114 3116 3117 3118 3120
3079 3081 3082 3085 3087 3089 3091 3092 3095 3097 3100 3102 3103 3104 3106 3108 3110 3111 3112 3114 3115 3116 3117 3118 3118 3119 3119 3120 3120 3120 3121 3121 3120 3120 3119 3119 3118 3117 3116 3115 3113 3112 3111 3109 3107 3106 3105 3103 3103 3103 3104 3103 3103 3104 3105 3105 3106 3109 3111 3113 3114 3115 3117
3075 3077 3078 3080 3083 3085 3087 3089 3091 3094 3096 3098 3099 3101 3103 3104 3106 3107 3109 3110 3111 3112 3113 3113 3114 3115 3115 3116 3116 3117 3117 3117 3117 3116 3115 3115 3114 3113 3111 3110 3109 3108 3107 3105 3103 3102 3100 3098 3098 3099 3100 3100 3101 3102 3102 3103 3104 3106 3108 3110 3111 3112 3115
3071 3073 3074 3076 3078 3081 3084 3085 3087 3089 3091 3093 3095 3097 3098 3100 3101 3103 3105 3106 3107 3108 3108 3109 3110 3111 3112 3112 3113 3113 3113 3113 3113 3112 3111 3110 3110 3109 3107 3105 3104 3104 3103 3102 3100 3098 3097 3095 3095 3095 3096 3098 3099 3100 3100 3101 3102 3104 3106 3107 3109 3111 3113
3066 3068 3070 3072 3074 3077 3080 3081 3083 3084 3087 3089 3091 3093 3094 3096 3098 3099 3101 3102 3103 3103 3104 3105 3107 3108 3109 3109 3109 3108 3108 3108 3108 3108 3107 3106 3106 3105 3104 3102 3101 3100 3099 3098 3097 3095 3094 3093 3093 3093 3094 3095 3096 3097 3098 3099 3101 3102 3104 3106 3108 3110 3111
3061 3063 3065 3068 3070 3073 3075 3077 3079 3081 3083 3085 3087 3089 3091 3092 3094 3095 3096 3097 3098 3099 3101 3102 3104 3105 3105 3105 3105 3104 3104 3104 3104 3104 3104 3103 3102 3101 3100 3099 3098 3097 3096 3094 3092 3091 3090 3090 3091 3091 3092 3093 3093 3094 3095 3097 3099 3101 3103 3105 3107 3108 3108
3057 3059 3062 3064 3066 3068 3070 3072 3074 3076 3078 3080 3083 3085 3086 3087 3089 3090 3091 3093 3094 3096 3098 3101 3102 3102 3102 3102 3101 3101 3101 3101 3100 3100 3100 3100 3098 3097 3096 3095 3094 3093 3092 3091 3089 3088 3087 3088 3088 3089 3089 3090 3091 3092 3093 3095 3098 3100 3102 3104 3105 3106 3106
3053 3055 3058 3060 3062 3064 3066 3068 3070 3072 3074 3076 3078 3080 3082 3084 3086 3088 3090 3091 3092 3093 3095 3098 3099 3100 3100 3099 3098 3097 3098 3098 3097 3097 3097 3096 3095 3094 3093 3092 3091 3090 3089 3087 3086 3085 3085 3085 3086 3086 3087 3088 3089 3090 3091 3094 3096 3098 3100 3102 3103 3104 3104
3050 3052 3055 3057 3060 3062 3064 3066 3068 3069 3071 3073 3076 3078 3081 3083 3085 3086 3089 3091 3092 3092 3092 3094 3095 3096 3096 3095 3095 3095 3095 3095 3094 3094 3093 3092 3091 3090 3090 3089 3088 3087 3086 3085 3084 3083 3083 3083 3083 3084 3085 3085 3086 3088 3090 3092 3094 3096 3098 3099 3100 3101 3101
3048 3051 3054 3056 3059 3061 3064 3066 3068 3070 3072 3074 3076 3078 3081 3083 3084 3084 3086 3088 3089 3090 3089 3090 3091 3092 3092 3092 3092 3092 3092 3091 3091 3090 3089 3088 3087 3087 3086 3086 3086 3085 3083 3082 3082 3082 3082 3082 3082 3083 3083 3083 3085 3086 3088 3091 3093 3094 3096 3097 3098 3098 3098
3047 3050 3053 3055 3058 3060 3063 3066 3068 3070 3072 3074 3076 3078 3080 3081 3082 3083 3083 3084 3085 3085 3085 3085 3086 3088 3089 3088 3088 3088 3088 3087 3086 3085 3085 3084 3084 3084 3084 3084 3083 3082 3081 3080 3080 3080 3080 3081 3081 3082 3082 3083 3084 3085 3087 3089 3091 3093 3094 3095 3095 3095 3095
3047 3050 3052 3055 3057 3059 3061 3063 3066 3068 3070 3072 3074 3076 3077 3079 3079 3080 3080 3080 3081 3081 3081 3081 3083 3084 3085 3085 3084 3084 3083 3082 3082 3082 3082 3081 3081 3081 3081 3081 3080 3079 3078 3078 3078 3079 3079 3080 3080 3081 3081 3082 3083 3084 3086 3087 3089 3091 3091 3091 3091 3091 3091
3048 3050 3052 3055 3057 3058 3060 3062 3064 3067 3069 3070 3072 3073 3075 3075 3076 3076 3077 3077 3078 3078 3079 3079 3080 3081 3080 3080 3080 3079 3078 3078 3079 3079 3078 3078 3078 3078 3078 3078 3077 3076 3076 3077 3077 3078 3078 3079 3079 3080 3080 3081 3082 3083 3084 3085 3086 3087 3088 3088 3088 3088 3088
3049 3051 3053 3055 3057 3058 3060 3062 3063 3065 3067 3068 3069 3070 3071 3072 3073 3073 3073 3074 3075 3076 3076 3076 3076 3076 3076 3075 3075 3075 3075 3075 3075 3075 3076 3076 3076 3076 3076 3075 3074 3074 3074 3075 3075 3076 3077 3078 3078 3078 3079 3079 3080 3082 3082 3082 3083 3084 3084 3084 3085 3085 3085
3049 3051 3053 3054 3056 3057 3059 3060 3061 3063 3064 3065 3066 3067 3068 3069 3069 3069 3069 3070 3071 3072 3072 3071 3071 3071 3071 3072 3072 3072 3072 3073 3073 3073 3073 3074 3074 3074 3073 3073 3072 3072 3073 3073 3074 3074 3075 3076 3076 3077 3077 3077 3078 3079 3080 3080 3080 3081 3081 3081 3082 3082 3082
3048 3050 3052 3053 3055 3055 3056 3058 3059 3060 3061 3062 3063 3063 3064 3064 3065 3065 3066 3066 3066 3067 3067 3067 3068 3068 3068 3069 3069 3069 3070 3070 3070 3071 3072 3072 3072 3071 3071 3071 3071 3071 3071 3071 3072 3073 3073 3074 3074 3075 3075 3076 3076 3077 3078 3078 3078 3078 3079 3079 3079 3079 3078